(176126) = 2001 EA5

Discovered at Anderson Mesa on 2001-03-02 by LONEOS.

Orbit

Orbit type: Main Belt

Note: WebGL enabled browser required.

epoch2023-09-13.0
epoch JD2460200.5
perihelion date2022-09-28.21867
perihelion JD2459850.71867
argument of perihelion (°)191.96110
ascending node (°)23.47107
inclination (°)3.47660
eccentricity0.1579634
perihelion distance (AU)1.9541274
Tisserand w.r.t. Jupiter3.6
ΔV w.r.t. Earth (km/sec)8.7
semimajor axis (AU)2.3207155
mean anomaly (°)97.51414
mean daily motion (°/day)0.27878600
aphelion distance (AU)2.687
period (years)3.54
P-vector [x]-0.81495430
P-vector [y]-0.52657982
P-vector [z]-0.24199831
Q-vector [x]0.57902172
Q-vector [y]-0.72245354
Q-vector [z]-0.37788191
absolute magnitude16.82
phase slope0.15
uncertainty0
referenceMPO 778147
observations used551
oppositions16
arc length (days)8778
first opposition used1999
last opposition used2023
residual rms (arc-secs)0.71
perturbers coarse indicatorM-v
perturbers precise indicator003Ek
first observation date used1999-10-06.0
last observation date used2023-10-18.0
computer nameMPCLINUX
JD of orbit computation2456670.936197
perihelion JD uncertainty (days)1.6097E-04
argument of perihelion uncertainty (°)1.0147E-04
ascending node uncertainty (°)9.6348E-05
inclination uncertainty (°)1.0123E-05
eccentricity uncertainty 1.4254E-07
perihelion distance uncertainty (AU)3.3319E-07
Minimum Orbit Intersection Distances (in AU)
for orbit epoch: 2460200.5, reference: E2023-UA0
Mercury1.50665
Venus1.23283
Earth0.94655
Mars0.34201
Jupiter2.27654
Saturn6.47189
Uranus16.3255
Neptune27.1545

Observations

561 total observations over interval: 1999 10 06.32680 – 2023 10 18.138823
These data are available for download (format description).

Date (UT) J2000 RA J2000 Dec Magn Location Ref
1999 10 06.32680 03 05 04.44 +18 33 44.5 20.9   704 – Lincoln Laboratory ETS, New Mexico MPS 28133
1999 10 06.34002 03 05 04.04 +18 33 44.5 20.4   704 – Lincoln Laboratory ETS, New Mexico MPS 28133
1999 10 06.35326 03 05 03.45 +18 33 42.9 20.4   704 – Lincoln Laboratory ETS, New Mexico MPS 28133
1999 10 06.36649 03 05 02.99 +18 33 42.4 20.5   704 – Lincoln Laboratory ETS, New Mexico MPS 28133
1999 10 30.39317 02 44 00.03 +17 37 02.9 21.3 V 691 – Steward Observatory, Kitt Peak-Spacewatch MPS 28133
1999 10 30.41478 02 43 58.66 +17 36 58.8 21.3 V 691 – Steward Observatory, Kitt Peak-Spacewatch MPS 28133
1999 10 30.43642 02 43 57.21 +17 36 54.5 21.5 V 691 – Steward Observatory, Kitt Peak-Spacewatch MPS 28133
2001 03 02.28957 11 34 31.71 +07 07 11.4 18.6 R 699 – Lowell Observatory-LONEOS MPS 28133
2001 03 02.31458 11 34 30.34 +07 07 18.3   699 – Lowell Observatory-LONEOS MPS 28133
2001 03 02.33954 11 34 28.87 +07 07 24.6   699 – Lowell Observatory-LONEOS MPS 28133
2001 03 02.36452 11 34 27.42 +07 07 32.4   699 – Lowell Observatory-LONEOS MPS 28133
2001 03 03.30328 11 33 35.80 +07 11 39.1 18.4   704 – Lincoln Laboratory ETS, New Mexico MPS 28133
2001 03 03.31641 11 33 35.04 +07 11 42.5 18.5   704 – Lincoln Laboratory ETS, New Mexico MPS 28133
2001 03 03.32953 11 33 34.32 +07 11 45.9 18.3   704 – Lincoln Laboratory ETS, New Mexico MPS 28133
2001 03 03.34265 11 33 33.52 +07 11 49.9 18.8   704 – Lincoln Laboratory ETS, New Mexico MPS 28133
2001 03 03.35579 11 33 32.77 +07 11 53.3 18.2   704 – Lincoln Laboratory ETS, New Mexico MPS 28133
2001 03 15.48513 11 21 39.81 +08 03 34.4 19.5   608 – Haleakala-AMOS MPS 28133
2001 03 15.49996 11 21 38.86 +08 03 37.4 19.6   608 – Haleakala-AMOS MPS 28133
2001 03 15.51051 11 21 38.20 +08 03 40.0 19.4   608 – Haleakala-AMOS MPS 28133
2001 03 18.24038 11 18 56.81 +08 13 52.0 18.2   704 – Lincoln Laboratory ETS, New Mexico MPS 28133
2001 03 18.25331 11 18 56.03 +08 13 53.9 18.6   704 – Lincoln Laboratory ETS, New Mexico MPS 28133
2001 03 18.25817 11 18 55.69 +08 13 54.5 18.4   704 – Lincoln Laboratory ETS, New Mexico MPS 28133
2001 03 18.26623 11 18 55.25 +08 13 55.7 18.4   704 – Lincoln Laboratory ETS, New Mexico MPS 28133
2001 03 18.27109 11 18 54.92 +08 13 56.4 18.4   704 – Lincoln Laboratory ETS, New Mexico MPS 28133
2001 03 18.27295 11 18 54.88 +08 13 57.3 17.9 R 699 – Lowell Observatory-LONEOS MPS 28133
2001 03 18.27918 11 18 54.43 +08 13 58.6 18.1   704 – Lincoln Laboratory ETS, New Mexico MPS 28133
2001 03 18.28430 11 18 54.13 +08 13 59.8 18.6   704 – Lincoln Laboratory ETS, New Mexico MPS 28133
2001 03 18.29214 11 18 53.61 +08 14 01.7 18.2   704 – Lincoln Laboratory ETS, New Mexico MPS 28133
2001 03 18.29766 11 18 53.32 +08 14 03.2 18.8   704 – Lincoln Laboratory ETS, New Mexico MPS 28133
2001 03 18.31346 11 18 52.30 +08 14 07.7   699 – Lowell Observatory-LONEOS MPS 28133
2001 03 18.35402 11 18 49.90 +08 14 14.7   699 – Lowell Observatory-LONEOS MPS 28133
2001 03 18.39472 11 18 47.37 +08 14 23.9   699 – Lowell Observatory-LONEOS MPS 28133
2001 03 19.24790 11 17 57.87 +08 17 24.6 18.4   704 – Lincoln Laboratory ETS, New Mexico MPS 28133
2001 03 19.25178 11 17 57.75 +08 17 24.0 18.4   704 – Lincoln Laboratory ETS, New Mexico MPS 28133
2001 03 19.26087 11 17 57.14 +08 17 26.3 18.7   704 – Lincoln Laboratory ETS, New Mexico MPS 28133
2001 03 19.26465 11 17 56.89 +08 17 27.5 18.6   704 – Lincoln Laboratory ETS, New Mexico MPS 28133
2001 03 19.27382 11 17 56.36 +08 17 29.1 18.5   704 – Lincoln Laboratory ETS, New Mexico MPS 28133
2001 03 19.27893 11 17 56.02 +08 17 30.0 18.5   704 – Lincoln Laboratory ETS, New Mexico MPS 28133
2001 03 19.28677 11 17 55.60 +08 17 32.1 18.5   704 – Lincoln Laboratory ETS, New Mexico MPS 28133
2001 03 19.29281 11 17 55.22 +08 17 33.0 18.4   704 – Lincoln Laboratory ETS, New Mexico MPS 28133
2001 03 19.29975 11 17 54.71 +08 17 34.7 18.7   704 – Lincoln Laboratory ETS, New Mexico MPS 28133
2001 03 19.30568 11 17 54.38 +08 17 35.3 18.7   704 – Lincoln Laboratory ETS, New Mexico MPS 28133
2001 03 26.36644 11 11 25.55 +08 38 26.1 20.7   608 – Haleakala-AMOS MPS 28133
2001 03 26.37771 11 11 24.94 +08 38 27.7 20.6   608 – Haleakala-AMOS MPS 28133
2001 03 26.38791 11 11 24.35 +08 38 29.4 21.1   608 – Haleakala-AMOS MPS 28133
2001 03 31.20484 11 07 33.05 +08 47 51.1 18.4   704 – Lincoln Laboratory ETS, New Mexico MPS 28133
2001 03 31.21918 11 07 32.45 +08 47 51.3 19.0   704 – Lincoln Laboratory ETS, New Mexico MPS 28133
2001 03 31.23367 11 07 31.70 +08 47 52.6 19.0   704 – Lincoln Laboratory ETS, New Mexico MPS 28133
2001 04 16.16513 10 59 36.77 +08 45 51.0 18.5 R 699 – Lowell Observatory-LONEOS MPS 29549
2001 04 16.19657 10 59 36.19 +08 45 47.5   699 – Lowell Observatory-LONEOS MPS 29549
2001 04 16.22874 10 59 35.68 +08 45 44.3   699 – Lowell Observatory-LONEOS MPS 29549
2001 04 16.25980 10 59 35.28 +08 45 40.5   699 – Lowell Observatory-LONEOS MPS 29549
2002 09 12.22679 23 26 24.45 -07 09 19.1 20.0   644 – Palomar Mountain/NEAT MPS 61081
2002 09 12.30008 23 26 19.97 -07 09 41.1 19.7   644 – Palomar Mountain/NEAT MPS 61081
2002 09 12.37090 23 26 15.63 -07 10 02.1 19.9   644 – Palomar Mountain/NEAT MPS 61081
2003 11 21.40847 06 26 03.58 +27 47 14.2 20.0 R 695 – Kitt Peak MPS 93652
2003 11 21.46637 06 26 01.44 +27 47 22.3   695 – Kitt Peak MPS 93652
2006 09 26.47777 02 39 20.84 +15 59 51.7 20.7 V G96 – Mt. Lemmon Survey MPS 180771
2006 09 26.48174 02 39 20.70 +15 59 51.3 20.6 V G96 – Mt. Lemmon Survey MPS 180771
2006 09 26.48582 02 39 20.55 +15 59 51.2 20.6 V G96 – Mt. Lemmon Survey MPS 180771
2006 09 26.48984 02 39 20.44 +15 59 50.8 20.8 V G96 – Mt. Lemmon Survey MPS 180771
2006 10 12.25714 02 27 48.19 +15 26 02.5   691 – Steward Observatory, Kitt Peak-Spacewatch MPS 182407
2006 10 12.27453 02 27 47.21 +15 26 00.1   691 – Steward Observatory, Kitt Peak-Spacewatch MPS 182407
2006 10 12.29193 02 27 46.24 +15 25 56.2   691 – Steward Observatory, Kitt Peak-Spacewatch MPS 182407
2006 10 16.29706 02 24 02.58 +15 13 05.7 20.7 V 691 – Steward Observatory, Kitt Peak-Spacewatch MPS 182736
2006 10 16.31452 02 24 01.51 +15 13 01.8 20.6 V 691 – Steward Observatory, Kitt Peak-Spacewatch MPS 182736
2006 10 16.33194 02 24 00.50 +15 12 58.6 20.6 V 691 – Steward Observatory, Kitt Peak-Spacewatch MPS 182736
2006 10 27.29936 02 12 54.18 +14 31 24.3 19.9 V G96 – Mt. Lemmon Survey MPS 185239
2006 10 27.31151 02 12 53.38 +14 31 21.2 20.1 V G96 – Mt. Lemmon Survey MPS 185239
2006 10 27.32351 02 12 52.59 +14 31 18.6 20.0 V G96 – Mt. Lemmon Survey MPS 185239
2006 10 27.33569 02 12 51.80 +14 31 15.5 20.0 V G96 – Mt. Lemmon Survey MPS 185239
2006 10 29.18052 02 10 56.88 +14 23 39.7   691 – Steward Observatory, Kitt Peak-Spacewatch MPS 185239
2006 10 29.19786 02 10 55.75 +14 23 35.4   691 – Steward Observatory, Kitt Peak-Spacewatch MPS 185239
2006 10 29.21521 02 10 54.65 +14 23 31.3   691 – Steward Observatory, Kitt Peak-Spacewatch MPS 185239
2006 11 10.13566 01 58 57.03 +13 33 56.7 20.6 V 691 – Steward Observatory, Kitt Peak-Spacewatch MPS 186479
2006 11 10.15113 01 58 56.13 +13 33 52.8 20.6 V 691 – Steward Observatory, Kitt Peak-Spacewatch MPS 186479
2006 11 10.16659 01 58 55.25 +13 33 49.3 20.6 V 691 – Steward Observatory, Kitt Peak-Spacewatch MPS 186479
2006 11 17.08738 01 52 48.28 +13 07 12.8 21.2 V 691 – Steward Observatory, Kitt Peak-Spacewatch MPS 188362
2006 11 17.10013 01 52 47.56 +13 07 10.2 20.8 V 691 – Steward Observatory, Kitt Peak-Spacewatch MPS 188362
2006 11 17.11287 01 52 46.97 +13 07 07.3 20.9 V 691 – Steward Observatory, Kitt Peak-Spacewatch MPS 188362
2008 01 01.53068 10 55 59.88 +11 43 19.7 20.5 V G96 – Mt. Lemmon Survey MPS 240558
2008 01 01.53572 10 55 59.98 +11 43 19.2 20.2 V G96 – Mt. Lemmon Survey MPS 240558
2008 01 01.54074 10 56 00.13 +11 43 19.1 20.3 V G96 – Mt. Lemmon Survey MPS 240558
2008 01 01.54597 10 56 00.24 +11 43 18.5 20.5 V G96 – Mt. Lemmon Survey MPS 240558
2008 02 07.30745 10 51 02.88 +12 48 39.7 20.4 V 691 – Steward Observatory, Kitt Peak-Spacewatch MPS 236133
2008 02 07.32506 10 51 02.04 +12 48 44.7 19.3 V 691 – Steward Observatory, Kitt Peak-Spacewatch MPS 236133
2008 02 07.34271 10 51 01.23 +12 48 49.6 19.3 V 691 – Steward Observatory, Kitt Peak-Spacewatch MPS 236133
